Regional Weather Roundup
Issued by NWS

Home | Current Version | Previous Version | Text Only | Print | Product List | Glossary On
Versions: 1 2 3 4 5 6 7 8 9 10 11 12 13 14 15 16 17 18 19 20 21 22 23 24 25 26 27 28 29 30 31 32 33 34 35 36 37 38 39 40 41 42 43 44 45 46 47 48 49 50
000
ASUS43 KTOP 251308
RWRKS

WEATHER ROUNDUP FOR KANSAS
NATIONAL WEATHER SERVICE GOODLAND KS
800 AM CDT SAT OCT 25 2014

NOTE:  "FAIR" INDICATES FEW OR NO CLOUDS BELOW 12,000 FEET WITH NO
SIGNIFICANT WEATHER AND/OR OBSTRUCTIONS TO VISIBILITY.

KSZ001>006-013>018-027>032-041>047-251400-
NORTHWEST KANSAS

CITY           SKY/WX    TMP DP  RH WIND       PRES   REMARKS
GOODLAND       CLEAR     45  33  63 W7        30.13S
HAYS           CLEAR     45  39  81 W7        30.05S
HILL CITY      CLEAR     44  38  79 W3        30.07R
RUSSELL        CLEAR     48  46  93 S7        30.04R
$$

KSZ061>065-074>080-084>089-251400-
SOUTHWEST KANSAS

CITY           SKY/WX    TMP DP  RH WIND       PRES   REMARKS
DODGE CITY     CLEAR     56  42  59 SW6       30.08S
ELKHART          N/A     55  36  49 W7          N/A
GARDEN CITY    CLEAR     47  41  80 W6        30.08S
GREAT BEND     CLEAR     46  43  87 SW6       30.07S
LIBERAL        CLEAR     48  39  71 W3        30.11R
PRATT          CLEAR     54  52  94 W6        30.07S
$$

KSZ066>073-081>083-090>101-251400-
SOUTHEAST KANSAS

CITY           SKY/WX    TMP DP  RH WIND       PRES   REMARKS
CHANUTE        FOG       53  53 100 SE3       30.06R VSB<1/4
COFFEYVILLE    FOG       56  56 100 CALM      30.06R VSB<1/4
HUTCHINSON     FOG       50  48  93 NW3       30.06R VSB 1/4
MEDICINE LODGE   N/A     50  50 100 N3        30.04S
NEWTON           N/A     55  52  88 E7        30.07S VSB<1/4
PARSONS        FOG       55  55 100 CALM      30.08R VSB 1/4
WICHITA INTL   FOG       52  50  93 CALM      30.04S VSB 1
WICHITA JABRA  FOG       53  52  96 CALM      30.04S VSB 1/4
WICHITA MCCONL CLEAR     57  57 100 E2        30.05S FOG
WINFIELD       CLEAR     58  57  97 SE3       30.06R FOG
$$

KSZ007>012-019>026-033>040-048>060-102>105-251400-
NORTHEAST KANSAS

CITY           SKY/WX    TMP DP  RH WIND       PRES   REMARKS
CONCORDIA      CLEAR     51  50  96 E3        30.06R FOG
EMPORIA        FOG       56  56 100 CALM      30.05R VSB 1/2
LAWRENCE       FOG       50  49  96 CALM      30.06R VSB<1/4
MANHATTAN      FOG       52  52 100 CALM      30.05R VSB 1/4
MARYSVILLE     PTCLDY    45  45 100 N5        30.07R FOG
OLATHE IND     FOG      N/A N/A N/A CALM      30.06S VSB<1/4
OLATHE EXE     FOG       53  53 100 CALM      30.05R VSB<1/4
SALINA         FOG       53  52  96 S3        30.05R VSB 1/4
TOPEKA BILLARD FOG       53  53 100 CALM      30.06R VSB<1/4
TOPEKA FORBES  FOG       51  51 100 CALM      30.05R VSB<1/4
$$



USA.gov is the U.S. government's official web portal to all federal, state and local government web resources and services.